Regional Weather Roundup
Issued by NWS Kansas City/Pleasant Hill, MO

Home | Current Version | Previous Version | Graphics & Text | Print | Product List | Glossary Off
Versions: 1 2 3 4 5 6 7 8 9 10 11 12 13 14 15 16 17 18 19 20 21 22 23 24 25 26 27

000
ASUS43 KEAX 251310
RWREAX

WEATHER ROUNDUP FOR EASTERN KANSAS AND NORTHWEST MISSOURI
NATIONAL WEATHER SERVICE KANSAS CITY/PLEASANT HILL MO
800 AM CDT WED APR 25 2018

KSZ040-057-103>105-MOZ028-029-037-043-251400-
...KANSAS CITY METROPOLITAN AREA...

CITY           SKY/WX    TMP DP  RH WIND       PRES   REMARKS
K.C. INTL      LGT RAIN  50  45  83 NW6       30.16R
K.C. DOWNTOWN  LGT RAIN  53  44  71 NW5       30.16R
LEES SUMMIT    CLOUDY    53  45  74 NW6       30.15R
OLATHE - IXD   LGT RAIN  50  48  93 NW8       30.17R
OLATHE - OJC   LGT RAIN  51  46  83 N8        30.15R
LAWRENCE       LGT RAIN  50  48  93 NW6       30.17R

$$

MOZ001>008-011>017-020>025-030>033-038>040-044>046-053-054-251400-
...NORTHERN AND CENTRAL MISSOURI...

CITY           SKY/WX    TMP DP  RH WIND       PRES   REMARKS
ST. JOSEPH     LGT RAIN  49  47  93 N9        30.17R
MOSBY          DRIZZLE   52  45  76 NW5       30.15R
WARRENSBURG    CLOUDY    54  41  62 N5        30.13R
WHITEMAN AFB   CLOUDY    55  42  62 NW9       30.09R
CLINTON        CLOUDY    55  46  71 NW7       30.14R
SEDALIA        CLOUDY    56  45  66 N10       30.11R
WARSAW         NOT AVBL
CHILLICOTHE      N/A     54  40  59 VRB6      30.14R
KIRKSVILLE     CLOUDY    51  39  63 N16       30.10F

$$

MOZ041-047>049-056>058-063>065-088>090-097-251400-
...EASTERN AND SOUTHERN MISSOURI...

CITY           SKY/WX    TMP DP  RH WIND       PRES   REMARKS
ST. LOUIS INTL CLOUDY    57  45  64 NW7       30.04S
SPIRIT OF STL  PTSUNNY   58  45  62 N3        30.04S
COLUMBIA       CLOUDY    55  41  59 N10       30.08R
JEFFERSON CITY CLOUDY    56  43  61 NW3       30.09R
ROLLA          PTSUNNY   52  43  71 N6        30.07R
OSAGE BEACH    PTSUNNY   56  45  66 N3        30.10R
SPRINGFIELD    CLOUDY    54  46  74 NW10      30.12R
BRANSON        PTSUNNY   54  45  71 CALM      30.10R
JOPLIN         LGT RAIN  52  51  97 W3        30.18R FOG
WEST PLAINS    MOSUNNY   57  42  57 N6        30.07R

$$

IAZ060-094-KSZ022-034>040-054-083-096-NEZ052-066-093-251400-
...KANSAS...SOUTHEAST NEBRASKA AND IOWA...

CITY           SKY/WX    TMP DP  RH WIND       PRES   REMARKS
TOPEKA         CLOUDY    50  49  96 N6        30.16F
MANHATTAN      LGT RAIN  50  47  89 VRB6      30.20R FOG
EMPORIA        CLOUDY    49  48  97 W9        30.17R FOG
CHANUTE        LGT RAIN  52  50  93 W6        30.18R FOG
WICHITA        LGT RAIN  45  44  97 NW13      30.22R
OMAHA          LGT RAIN  43  40  89 N14       30.24R
LINCOLN        CLOUDY    44  40  85 N15       30.27R
FALLS CITY     LGT RAIN  47  45  93 N10       30.19S
LAMONI         CLOUDY    49  37  63 N9        30.16R
DES MOINES     CLOUDY    48  36  63 N10       30.19R

$$





USA.gov is the U.S. government's official web portal to all federal, state and local government web resources and services.